Regional Weather Roundup
Issued by NWS

Home | Current Version | Previous Version | Graphics & Text | Print | Product List | Glossary On
Versions: 1 2 3 4 5 6 7 8 9 10 11 12 13 14 15 16 17 18 19 20 21 22 23 24 25 26 27 28 29 30 31 32 33 34 35 36 37 38 39 40 41 42 43 44 45 46 47 48 49 50
000
ASUS43 KIND 070209
RWRIN

WEATHER ROUNDUP FOR INDIANA
NATIONAL WEATHER SERVICE INDIANAPOLIS IN
1000 PM EDT WED MAY 06 2015

NOTE: "FAIR" INDICATES FEW OR NO CLOUDS BELOW 12,000 FEET WITH NO
SIGNIFICANT WEATHER AND/OR OBSTRUCTIONS TO VISIBILITY.

* - STATION DOES NOT REPORT WEATHER SUCH AS PRECIPITATION OR FOG.

+ - STATION NOT QUALITY CONTROLLED BY THE NATIONAL WEATHER SERVICE.
    USE DATA WITH CAUTION...ESPECIALLY DEWPOINT AND RELATIVE
    HUMIDITY OBSERVATIONS.

INZ001>003-010>013-019-020-070300-
NORTHWEST INDIANA

CITY           SKY/WX    TMP DP  RH WIND       PRES   REMARKS
GARY /AIRPORT/ MOCLDY    55 N/A N/A CALM      30.08R
KNOX *+        PTCLDY    68  45  42 SE3       30.08R
LA PORTE +     PTCLDY    70  61  73 CALM      30.10R
MICHIGAN CITY+ PTCLDY    64  55  72 CALM      30.08S
MONTICELLO +   PTCLDY    69  56  63 CALM      30.08R
VALPARAISO     PTCLDY    69  54  58 E3        30.08R

$$

LMZ046-743>745-070300-
SOUTHERN LAKE MICHIGAN

STATION/POSITION TIME  TEMP    WIND        PRES    WAVE
                       AIR SEA DIR/SP/G            HT
                 (UTC) (F)     (DEG/KT/KT) (MB)    (FT)
BURNS HARBOR     0200   59      80/  8/ 10 1018.6S
MICHIGAN CITY    0200   62      40/  3/  4   N/A
5NW MICH CITY    0200   56 54   80/  4/  8   N/A     1

$$

INZ004-005-014>016-021>024-070300-
NORTH CENTRAL INDIANA

CITY           SKY/WX    TMP DP  RH WIND       PRES   REMARKS
GOSHEN         CLEAR     69  62  78 E9        30.11R HAZE
LOGANSPORT +   PTCLDY    68  55  64 SE5       30.10R
PERU/GRISSOM   CLEAR     72  56  58 E5        30.09R
ROCHESTER +    CLEAR     72  61  68 CALM      30.10S
SOUTH BEND     PTCLDY    74  58  57 E7        30.10R
WARSAW +       CLEAR     70  63  78 E8        30.12R

$$

INZ006>009-017-018-025>027-070300-
NORTHEAST INDIANA

CITY           SKY/WX    TMP DP  RH WIND       PRES   REMARKS
ANGOLA *+      CLEAR     64  63  94 SE9       30.14R
AUBURN +       CLEAR     64  59  82 E5        30.15R HAZE
FORT WAYNE     PTCLDY    67  60  78 E7        30.13R
HUNTINGTON +   CLEAR     70  60  71 E6        30.12R

$$

INZ028-029-035-036-043>045-051>053-070300-
WEST CENTRAL INDIANA

CITY           SKY/WX    TMP DP  RH WIND       PRES   REMARKS
CRAWFORDSVL +  PTCLDY    67  50  54 E5        30.09S HAZE
GREENCASTLE +  PTCLDY    70  48  46 CALM      30.10R
LAFAYETTE      CLEAR     67  57  70 CALM      30.07S
TERRE HAUTE    CLOUDY    76  55  48 SE5       30.08R

$$

INZ030>032-037>040-046>048-054>057-064-065-070300-
CENTRAL INDIANA

CITY           SKY/WX    TMP DP  RH WIND       PRES   REMARKS
CP ATTERBURY + CLEAR     64  57  77 CALM      30.11R
COLUMBUS       CLEAR     66  52  59 CALM      30.11
FISHERS *+     CLEAR     66  59  77 CALM      30.11R
FRANKFORT +    PTCLDY    70  55  57 CALM      30.11S
GREENWOOD *+   CLEAR     72  54  53 CALM      30.11R
INDIANAPOLIS   PTCLDY    75  51  43 SE5       30.09R
-EAGLE CREEK   CLEAR     70  59  68 CALM      30.10R
KOKOMO *+      CLEAR     70  57  64 SE3       30.10R
MARION +       CLEAR     71  56  60 SE5       30.12R
MT COMFORT *+  CLEAR     68  43  40 CALM      30.12R
SHELBYVILLE    PTCLDY    72  52  49 CALM      30.11R
ZIONSVILLE +   CLEAR     70  57  63 E3        30.11S

$$

INZ033-034-041-042-049-050-058-059-070300-
EAST CENTRAL INDIANA

CITY           SKY/WX    TMP DP  RH WIND       PRES   REMARKS
MUNCIE         CLEAR     70  59  68 SE5       30.12R

$$

INZ060-061-067>069-081>083-085>088-070300-
SOUTHWEST INDIANA

CITY           SKY/WX    TMP DP  RH WIND       PRES   REMARKS
EVANSVILLE     CLEAR     72  58  61 CALM      30.08R
HUNTINGBURG *+ CLEAR     72  55  56 CALM      30.09R
WASHINGTON +   CLEAR     67  53  60 CALM      30.08R

$$

INZ062-063-066-070>080-084-089>092-070300-
SOUTH CENTRAL AND SOUTHEAST INDIANA

CITY           SKY/WX    TMP DP  RH WIND       PRES   REMARKS
BLOOMINGTON    CLEAR     69  56  62 CALM      30.10R
MADISON *+     CLEAR     66  57  72 CALM      30.13R
NORTH VERNON + CLEAR     66  55  68 CALM      30.12R
SEYMOUR +      CLEAR     70  57  64 CALM      30.10

$$




USA.gov is the U.S. government's official web portal to all federal, state and local government web resources and services.